Theta_e
301 299 298 294 292 290 290 290 289 289 288 288 288 288 288 288 288 288 288 288 288 288 287 287 287 287 287 288 287 288 292 295
299 298 295 292 290 289 289 289 288 288 288 288 287 287 287 287 287 287 287 287 286 286 287 287 286 286 286 286 287 287 287 287
297 296 292 291 290 289 289 288 288 288 288 287 287 287 287 287 286 286 286 286 286 286 286 286 286 286 286 286 286 285 286 286
295 293 292 291 290 289 289 288 288 288 288 288 287 287 287 286 286 285 285 285 285 285 285 285 285 285 285 285 285 285 285 285
294 292 292 291 290 289 289 288 288 288 288 288 287 287 286 286 286 285 285 285 285 284 284 284 284 284 284 283 284 284 284 284
293 292 291 290 289 289 289 289 289 288 288 288 287 286 286 285 285 285 284 284 284 283 283 283 282 282 282 282 282 283 283 283
295 292 291 290 290 290 289 289 288 288 288 287 286 286 285 284 284 284 283 283 282 282 282 283 283 282 279 279 279 279 280 281
292 290 290 289 289 289 289 288 288 288 287 286 285 284 284 283 283 282 282 282 282 282 282 282 282 280 279 276 277 277 278 278
291 291 290 289 289 289 288 288 288 287 286 285 284 283 282 282 281 281 282 282 281 280 279 279 278 276 275 274 274 275 276 275
290 290 289 289 289 288 288 288 287 286 285 283 283 282 281 281 281 281 280 280 279 278 276 275 274 272 271 270 270 271 272 272
290 289 289 289 288 288 288 287 286 285 283 283 282 281 280 280 280 279 278 278 276 276 273 272 272 271 271 269 269 270 270 271
290 289 289 288 288 287 286 286 285 283 283 282 280 280 280 280 279 278 277 275 274 273 272 271 271 270 270 268 269 270 270 270
289 289 289 288 288 287 286 285 283 282 282 280 280 279 279 279 278 277 275 274 272 271 270 270 270 269 269 268 269 270 271 271
289 288 288 287 287 286 285 284 282 282 281 279 279 279 278 278 277 276 274 272 272 270 268 268 269 269 269 269 269 270 271 271
288 287 287 286 285 285 284 282 282 281 280 279 279 278 277 277 275 274 273 272 271 268 268 268 268 269 269 270 271 272 273 273
288 287 286 285 284 283 282 281 281 280 279 278 278 277 277 276 274 273 273 271 267 268 269 269 269 269 271 272 273 274 274 275
287 285 284 284 283 282 280 280 280 279 278 277 277 276 275 275 275 274 273 272 267 268 269 270 270 271 272 272 273 274 274 275
285 284 283 283 280 279 279 279 278 278 277 276 276 275 274 274 273 272 275 274 271 267 267 268 269 269 270 271 272 271 271 272
283 283 282 280 278 278 278 277 277 276 275 275 275 274 274 273 272 271 271 271 274 274 269 268 267 268 269 269 270 272 273 272
283 282 279 279 277 277 276 276 275 275 274 274 274 273 273 272 272 271 271 270 270 271 272 270 270 268 271 270 270 270 271 271
Wind_Speed
5 5 7 5 5 5 6 6 7 7 7 9 10 12 14 15 17 19 20 22 23 23 25 25 24 23 22 22 22 23 23 24
9 7 5 3 1 2 4 6 7 9 11 13 14 15 17 17 19 20 20 22 24 25 25 28 30 29 28 28 28 28 29 26
11 10 7 5 3 1 2 5 8 12 14 16 17 18 21 23 24 24 25 25 28 30 31 31 33 34 33 35 35 34 34 34
14 13 10 7 5 3 3 6 11 14 16 18 21 23 25 27 28 28 31 32 34 35 38 39 40 41 39 39 41 42 42 39
17 15 12 10 9 8 6 8 12 16 18 19 21 23 26 28 30 33 36 40 43 46 47 48 48 47 47 47 45 45 46 46
19 18 16 13 12 12 13 14 17 19 21 22 24 26 28 29 32 36 40 44 48 51 53 54 54 52 49 45 46 48 50 49
20 20 19 16 15 16 17 17 18 20 22 23 26 29 30 33 37 42 46 48 50 50 51 52 53 53 44 33 37 43 48 52
21 21 19 19 20 21 20 20 20 22 23 26 29 30 33 37 42 45 46 48 50 50 51 53 53 52 51 41 39 44 47 51
15 18 18 21 24 22 20 19 22 23 26 28 29 32 37 41 42 45 45 47 49 51 52 54 54 51 49 43 44 51 54 53
17 19 20 20 21 21 20 21 23 25 27 29 32 37 39 41 42 44 46 47 48 50 51 50 50 44 38 33 35 40 43 44
21 20 21 21 21 21 21 23 25 27 28 31 35 37 39 40 41 43 44 46 47 48 46 42 41 35 32 28 30 35 38 38
22 22 22 21 21 22 22 24 26 27 29 33 34 36 37 39 40 41 43 44 44 44 41 37 35 32 28 26 29 34 38 40
23 24 24 23 23 25 25 26 26 28 32 33 33 34 34 37 38 40 40 41 41 41 39 35 34 33 32 28 29 31 37 43
26 27 25 24 24 26 26 27 27 30 32 32 32 33 33 35 36 38 37 37 38 37 38 41 42 42 40 35 34 32 36 41
26 27 25 25 25 26 27 27 28 32 32 32 33 34 34 33 33 34 34 36 36 36 42 43 40 38 37 40 42 43 40 44
27 28 27 26 25 26 26 27 28 31 31 31 32 32 33 32 31 31 31 32 32 36 38 41 41 40 36 38 39 42 43 43
28 27 25 25 25 25 26 27 28 30 30 30 30 31 31 32 32 23 28 31 27 28 28 32 33 34 35 36 36 37 38 40
26 26 25 26 24 23 24 25 26 28 28 28 28 28 29 29 30 34 28 27 27 22 25 26 29 31 32 33 34 33 30 33
26 26 26 25 23 24 24 25 25 25 25 26 25 26 26 26 27 28 31 32 30 27 28 26 27 29 30 29 28 27 22 24
26 24 24 25 22 24 24 24 23 23 23 23 23 23 23 22 23 24 26 27 29 30 29 27 32 32 26 24 25 27 28 29
Wind_Direction
240 301 329 354 21 43 54 51 47 39 23 15 6 1 356 350 345 343 340 335 333 329 329 330 329 327 324 319 320 314 310 304
238 256 267 263 142 94 55 36 21 10 1 355 352 350 347 344 340 333 330 327 324 321 320 320 320 321 320 317 312 308 306 304
234 240 219 212 205 157 20 360 356 353 349 344 338 335 335 336 334 330 325 323 320 319 318 314 312 311 311 310 309 307 304 302
221 218 220 224 227 257 301 336 339 339 336 333 329 326 327 328 327 325 321 318 315 313 311 310 309 306 305 302 301 299 298 296
215 216 225 229 240 254 270 306 321 325 322 319 317 317 318 319 318 317 317 316 315 314 312 309 306 305 303 302 298 293 290 289
221 223 225 236 252 262 272 287 297 306 312 308 308 311 312 312 312 312 312 311 310 309 308 308 307 307 307 304 300 297 292 287
233 234 230 244 263 263 261 267 273 284 297 301 304 307 308 309 310 310 309 308 307 306 305 303 302 304 303 299 295 292 290 288
236 235 244 252 247 240 248 256 271 286 294 299 303 305 308 308 309 310 309 308 307 306 304 302 300 299 297 298 290 284 281 282
241 246 247 245 237 239 251 268 282 289 295 299 302 306 310 311 312 311 310 310 309 308 306 303 302 301 298 297 290 285 282 279
255 257 257 245 240 250 260 273 285 291 297 302 308 312 313 314 314 314 313 312 311 310 309 309 308 308 304 299 293 289 287 285
269 256 252 243 246 254 267 283 291 297 301 307 311 313 314 315 316 316 315 314 314 314 313 310 308 310 306 300 296 294 295 294
259 255 249 250 259 268 280 288 293 296 302 309 313 315 316 316 317 317 317 317 318 314 311 312 317 319 316 301 296 293 295 297
256 249 247 254 265 274 282 288 292 299 308 313 315 315 316 316 318 319 321 321 318 314 316 321 324 325 321 304 297 295 292 292
254 245 248 257 270 279 284 289 294 303 310 314 315 316 318 319 322 322 326 321 316 317 323 327 328 325 324 312 306 298 293 296
255 245 254 266 275 279 283 287 296 305 310 313 316 316 318 321 327 326 328 322 317 325 322 319 313 310 309 311 312 311 305 302
251 251 260 268 273 278 282 289 298 305 309 313 313 315 320 323 329 330 330 322 314 310 309 310 309 312 312 308 306 304 301 298
252 257 265 270 275 279 282 291 301 305 308 311 312 317 322 323 324 335 329 327 311 306 306 309 307 311 312 309 309 306 304 299
259 265 270 274 275 277 284 292 298 301 305 307 312 317 321 324 327 331 338 335 340 324 319 318 316 318 319 318 313 309 306 294
262 267 270 273 278 281 287 292 296 300 301 303 311 316 319 323 329 333 335 340 349 349 344 336 332 330 328 327 324 324 328 325
266 268 271 274 278 281 287 290 294 296 298 303 310 314 319 322 326 334 338 343 347 350 350 352 352 341 342 346 347 344 339 337